Location: Chervonnoye
(48.6000°N, 34.4000°E)
Time: 07:46:00
(UTC+00:00)

NOAA 15 - Pass Details

Date: 05 December 2021
Orbit: 797 x 812 km, 98.7° (Epoch: 26 January)

Event Time Altitude Azimuth Distance (km) Brightness Sun altitude
Rises 15:22:03 0° 133° (SE) 3,318 7.5 -14.9°
Reaches altitude 10° 15:24:36 10° 123° (ESE) 2,389 6.7 -15.3°
Maximum altitude 15:29:11 31° 63° (ENE) 1,392 5.3 -16.0°
Drops below altitude 10° 15:33:45 10° 3° (N) 2,394 6.9 -16.7°
Sets 15:36:19 0° 353° (N) 3,327 7.7 -17.1°
